Location: Unspecified
(0.0000°N, 0.0000°E)
Time: 18:58:23
(UTC+00:00)

Transit 2A Rocket - Pass Details

Date: 29 November 2019
Orbit: 594 x 909 km, 66.7° (Epoch: 08 December)

Event Time Altitude Azimuth Distance (km) Brightness Sun altitude
Rises 04:28:28 0° 15° (NNE) 3,013 8.0 -18.5°
Reaches altitude 10° 04:31:47 10° 40° (NE) 2,169 7.6 -17.7°
Maximum altitude 04:34:22 14° 72° (ENE) 1,952 7.8 -17.1°
Drops below altitude 10° 04:37:03 10° 103° (ESE) 2,284 8.8 -16.5°
Sets 04:40:42 0° 127° (SE) 3,291 9.8 -15.7°
